Pittsburg, KS

10:36 AM CDT on July 26, 2017 (GMT -0500)
Atkinson Municipal

Weather History for KPTS - May, 2014

Change the Weather History Date:

Sunday, May 4, 2014

  Actual Average (KJLN) Record (KJLN)
Temperature  
Mean Temperature 76 °F -  
Max Temperature 91 °F 74 °F 94 °F (2014)
Min Temperature 61 °F 50 °F 33 °F (1954)
Cooling Degree Days 11    
Growing Degree Days 26 (Base 50)    
Moisture  
Dew Point 44 °F    
Average Humidity 32    
Maximum Humidity 52    
Minimum Humidity 20    
Precipitation  
Precipitation 0.00 in - - ()
Sea Level Pressure  
Sea Level Pressure 29.83 in    
Wind  
Wind Speed 14 mph (SSW)    
Max Wind Speed 22 mph    
Max Gust Speed 37 mph    
Visibility 10 miles    
Events      
Averages and records for this station are not official NWS values.
T = Trace of Precipitation, MM = Missing Value Source: NWS Daily Summary

Daily Weather History Graph

Daily Weather History Graph

Search for Another Location

Airport or City:

Trip Planner

Search our weather history database for the weather conditions in past years. The results will help you decide how hot, cold, wet, or windy it might be!

Date:

Astronomy

May. 04, 2014 Rise Set
Actual Time 6:20 AM CDT 8:11 PM CDT
Civil Twilight 5:52 AM CDT 8:39 PM CDT
Nautical Twilight 5:17 AM CDT 9:14 PM CDT
Astronomical Twilight 4:41 AM CDT 9:51 PM CDT
Moon 10:45 AM CDT (5/4) 12:16 AM CDT (5/4)
Length of Visible Light 14h 47m
Length of Day
13h 51m
Waxing Crescent, 28% of the Moon is Illuminated
May 4
Waxing Crescent
May 6
First Quarter
May 14
Full
May 21
Last Quarter
May 28
New

Hourly Weather History & Observations

Time (CDT) Temp. Dew Point Humidity Pressure Visibility Wind Dir Wind Speed Gust Speed Precip Events Conditions
12:15 AM 70.9 °F 42.8 °F 36% 29.89 in 10.0 mi SSW 9.2 mph - N/A   Unknown
12:35 AM 70.9 °F 42.8 °F 36% 29.89 in 10.0 mi SSW 9.2 mph - N/A   Unknown
12:55 AM 70.9 °F 41.9 °F 35% 29.90 in 10.0 mi SSW 10.4 mph - N/A   Unknown
1:15 AM 70.9 °F 41.2 °F 34% 29.91 in 10.0 mi SW 11.5 mph - N/A   Unknown
1:35 AM 70.2 °F 41.7 °F 36% 29.90 in 10.0 mi SW 10.4 mph - N/A   Unknown
1:55 AM 66.6 °F 41.4 °F 40% 29.90 in 10.0 mi SSW 6.9 mph - N/A   Unknown
2:15 AM 63.7 °F 41.4 °F 44% 29.90 in 10.0 mi SSW 8.1 mph - N/A   Unknown
2:35 AM 63.5 °F 42.3 °F 46% 29.90 in 10.0 mi SSW 9.2 mph - N/A   Unknown
2:55 AM 63.7 °F 42.1 °F 45% 29.89 in 10.0 mi SW 10.4 mph - N/A   Unknown
3:15 AM 63.9 °F 42.1 °F 45% 29.89 in 10.0 mi SSW 10.4 mph - N/A   Unknown
3:35 AM 64.6 °F 42.4 °F 44% 29.89 in 10.0 mi SW 11.5 mph - N/A   Unknown
3:55 AM 65.3 °F 42.8 °F 44% 29.89 in 10.0 mi SW 12.7 mph 20.7 mph N/A   Unknown
4:15 AM 65.7 °F 42.6 °F 43% 29.89 in 10.0 mi SW 13.8 mph 19.6 mph N/A   Unknown
4:35 AM 63.9 °F 42.3 °F 45% 29.90 in 10.0 mi SSW 12.7 mph - N/A   Unknown
4:55 AM 63.7 °F 42.4 °F 46% 29.89 in 10.0 mi SSW 11.5 mph 16.1 mph N/A   Unknown
5:15 AM 63.5 °F 42.8 °F 47% 29.90 in 10.0 mi SSW 12.7 mph - N/A   Unknown
5:35 AM 63.0 °F 43.0 °F 48% 29.90 in 10.0 mi SSW 10.4 mph - N/A   Unknown
5:55 AM 62.2 °F 42.8 °F 49% 29.89 in 10.0 mi SSW 10.4 mph 17.3 mph N/A   Unknown
6:15 AM 62.1 °F 42.8 °F 49% 29.89 in 10.0 mi SSW 11.5 mph 16.1 mph N/A   Unknown
6:35 AM 62.1 °F 43.2 °F 50% 29.89 in 10.0 mi SSW 10.4 mph - N/A   Unknown
6:55 AM 62.1 °F 43.7 °F 51% 29.89 in 10.0 mi SSW 10.4 mph 17.3 mph N/A   Unknown
7:15 AM 61.7 °F 43.9 °F 52% 29.88 in 10.0 mi SSW 9.2 mph - N/A   Unknown
7:35 AM 61.9 °F 44.1 °F 52% 29.88 in 10.0 mi SSW 10.4 mph - N/A   Unknown
7:55 AM 63.3 °F 44.6 °F 50% 29.87 in 10.0 mi SSW 12.7 mph 18.4 mph N/A   Unknown
8:15 AM 65.8 °F 45.1 °F 47% 29.87 in 10.0 mi SSW 12.7 mph 19.6 mph N/A   Unknown
8:35 AM 69.4 °F 46.6 °F 44% 29.86 in 10.0 mi SSW 13.8 mph 19.6 mph N/A   Unknown
8:55 AM 71.6 °F 45.1 °F 39% 29.85 in 10.0 mi SSW 19.6 mph 25.3 mph N/A   Unknown
9:15 AM 75.2 °F 45.0 °F 34% 29.85 in 10.0 mi SSW 19.6 mph 24.2 mph N/A   Unknown
9:35 AM 76.1 °F 44.4 °F 32% 29.85 in 10.0 mi SSW 16.1 mph 27.6 mph N/A   Unknown
9:55 AM 76.8 °F 44.1 °F 31% 29.85 in 10.0 mi SW 20.7 mph 28.8 mph N/A   Unknown
10:15 AM 78.3 °F 44.4 °F 30% 29.85 in 10.0 mi SSW 17.3 mph 24.2 mph N/A   Unknown
10:35 AM 79.5 °F 44.4 °F 29% 29.84 in 10.0 mi SSW 21.9 mph 27.6 mph N/A   Unknown
10:55 AM 81.0 °F 43.3 °F 26% 29.85 in 10.0 mi SW 15.0 mph 25.3 mph N/A   Unknown
11:15 AM 82.2 °F 43.5 °F 25% 29.85 in 10.0 mi SW 18.4 mph 26.5 mph N/A   Unknown
11:35 AM 82.6 °F 43.9 °F 26% 29.85 in 10.0 mi SW 17.3 mph 25.3 mph N/A   Unknown
11:55 AM 83.8 °F 44.1 °F 25% 29.84 in 10.0 mi SSW 17.3 mph 25.3 mph N/A   Unknown
12:15 PM 84.7 °F 42.8 °F 23% 29.83 in 10.0 mi SSW 19.6 mph - N/A   Unknown
12:35 PM 86.0 °F 44.4 °F 23% 29.82 in 10.0 mi SSW 19.6 mph 26.5 mph N/A   Unknown
12:55 PM 88.3 °F 45.9 °F 23% 29.82 in 10.0 mi SSW 18.4 mph 28.8 mph N/A   Unknown
1:15 PM 89.2 °F 47.3 °F 23% 29.82 in 10.0 mi SSW 18.4 mph 24.2 mph N/A   Unknown
1:35 PM 90.5 °F 46.8 °F 22% 29.82 in 10.0 mi SW 21.9 mph - N/A   Unknown
1:55 PM 90.7 °F 46.8 °F 22% 29.81 in 10.0 mi SW 16.1 mph 25.3 mph N/A   Unknown
2:15 PM 91.0 °F 47.5 °F 22% 29.80 in 10.0 mi SW 17.3 mph 26.5 mph N/A   Unknown
2:35 PM 91.0 °F 46.6 °F 22% 29.79 in 10.0 mi SSW 17.3 mph 26.5 mph N/A   Unknown
2:55 PM 91.0 °F 46.9 °F 22% 29.79 in 10.0 mi SW 19.6 mph 24.2 mph N/A   Unknown
3:15 PM 91.0 °F 45.7 °F 21% 29.79 in 10.0 mi SW 17.3 mph 26.5 mph N/A   Unknown
3:35 PM 91.0 °F 45.3 °F 21% 29.79 in 10.0 mi SW 21.9 mph 27.6 mph N/A   Unknown
3:55 PM 91.0 °F 45.0 °F 20% 29.78 in 10.0 mi SW 19.6 mph 28.8 mph N/A   Unknown
4:15 PM 91.0 °F 44.8 °F 20% 29.78 in 10.0 mi SSW 20.7 mph 28.8 mph N/A   Unknown
4:35 PM 91.0 °F 44.8 °F 20% 29.77 in 10.0 mi SW 20.7 mph 31.1 mph N/A   Unknown
4:55 PM 91.0 °F 45.5 °F 21% 29.77 in 10.0 mi SW 15.0 mph 26.5 mph N/A   Unknown
5:15 PM 91.0 °F 46.2 °F 21% 29.77 in 10.0 mi SW 20.7 mph 36.8 mph N/A   Unknown
5:35 PM 91.0 °F 46.6 °F 22% 29.76 in 10.0 mi SSW 18.4 mph 26.5 mph N/A   Unknown
5:55 PM 91.0 °F 46.9 °F 22% 29.76 in 10.0 mi SSW 19.6 mph 26.5 mph N/A   Unknown
6:15 PM 90.5 °F 47.3 °F 22% 29.75 in 10.0 mi SSW 20.7 mph 31.1 mph N/A   Unknown
6:35 PM 88.7 °F 46.9 °F 24% 29.75 in - SSW 17.3 mph 23.0 mph N/A   Unknown
6:55 PM 86.4 °F 46.6 °F 25% 29.75 in 10.0 mi SSW 16.1 mph 24.2 mph N/A   Unknown
7:15 PM 84.9 °F 46.2 °F 26% 29.75 in 10.0 mi SSW 19.6 mph 24.2 mph N/A   Unknown
7:35 PM 83.8 °F 45.9 °F 26% 29.75 in 10.0 mi SSW 17.3 mph 23.0 mph N/A   Unknown
7:55 PM 82.6 °F 44.6 °F 26% 29.75 in 10.0 mi SSW 17.3 mph 24.2 mph N/A   Unknown
8:15 PM 82.0 °F 44.1 °F 26% 29.75 in 10.0 mi SSW 15.0 mph 23.0 mph N/A   Unknown
8:35 PM 81.3 °F 43.3 °F 26% 29.75 in 10.0 mi SSW 17.3 mph 23.0 mph N/A   Unknown
8:55 PM 81.0 °F 43.5 °F 27% 29.75 in 10.0 mi SSW 12.7 mph 23.0 mph N/A   Unknown
9:15 PM 81.0 °F 43.9 °F 27% 29.75 in 10.0 mi SSW 16.1 mph 24.2 mph N/A   Unknown
9:35 PM 80.8 °F 43.9 °F 27% 29.75 in 10.0 mi SSW 18.4 mph 21.9 mph N/A   Unknown
9:55 PM 80.2 °F 43.3 °F 27% 29.75 in 10.0 mi SSW 19.6 mph 23.0 mph N/A   Unknown
10:15 PM 79.9 °F 42.8 °F 27% 29.75 in 10.0 mi SSW 17.3 mph 24.2 mph N/A   Unknown
10:35 PM 79.2 °F 42.3 °F 27% 29.76 in 10.0 mi SSW 20.7 mph 27.6 mph N/A   Unknown
10:55 PM 78.4 °F 43.2 °F 28% 29.77 in 10.0 mi SSW 17.3 mph 23.0 mph N/A   Unknown
11:15 PM 78.3 °F 44.2 °F 30% 29.77 in 10.0 mi SSW 15.0 mph 23.0 mph N/A   Unknown
11:35 PM 78.1 °F 44.6 °F 30% 29.76 in 10.0 mi SSW 16.1 mph 25.3 mph N/A   Unknown
11:55 PM 76.6 °F 44.1 °F 31% 29.77 in 10.0 mi SSW 16.1 mph 25.3 mph N/A   Unknown